Time,TemperatureF,DewpointF,PressureIn,WindDirection,WindDirectionDegrees,WindSpeedMPH,WindSpeedGustMPH,Humidity,HourlyPrecipIn,Conditions,Clouds,dailyrainin,SoftwareType,DateUTC
2013-01-25 00:00:00,-8.1,-11.4,30.49,WNW,292,0.0,0.0,85,0.00,BKN,,0.00,WeatherDisplay:10.37,2013-01-25 05:00:00,
2013-01-25 00:01:00,-8.0,-11.3,30.49,WNW,292,0.0,0.0,85,0.00,BKN,,0.00,WeatherDisplay:10.37,2013-01-25 05:01:00,
2013-01-25 00:03:00,-8.1,-11.4,30.49,WNW,292,1.9,2.3,85,0.00,BKN,,0.00,WeatherDisplay:10.37,2013-01-25 05:03:00,
2013-01-25 00:08:00,-8.5,-11.8,30.49,WNW,292,0.0,0.0,85,0.00,BKN,,0.00,WeatherDisplay:10.37,2013-01-25 05:08:00,
2013-01-25 00:13:00,-8.1,-11.4,30.49,WNW,292,1.7,2.3,85,0.00,BKN,,0.00,WeatherDisplay:10.37,2013-01-25 05:13:00,
2013-01-25 00:18:00,-8.3,-11.8,30.48,WNW,292,0.4,0.0,84,0.00,BKN,,0.00,WeatherDisplay:10.37,2013-01-25 05:18:00,
2013-01-25 00:23:00,-8.5,-12.0,30.48,WNW,292,0.1,1.1,84,0.00,SCT,,0.00,WeatherDisplay:10.37,2013-01-25 05:23:00,
2013-01-25 00:28:00,-8.5,-12.0,30.49,WNW,292,1.7,1.7,84,0.00,SCT,,0.00,WeatherDisplay:10.37,2013-01-25 05:28:00,
2013-01-25 00:33:00,-8.5,-12.0,30.49,WNW,292,0.2,1.1,84,0.00,SCT,,0.00,WeatherDisplay:10.37,2013-01-25 05:33:00,
2013-01-25 00:38:00,-8.5,-12.0,30.49,WNW,292,1.4,1.7,84,0.00,SCT,,0.00,WeatherDisplay:10.37,2013-01-25 05:38:00,
2013-01-25 00:43:00,-8.3,-11.8,30.49,WNW,292,0.4,1.7,84,0.00,SCT,,0.00,WeatherDisplay:10.37,2013-01-25 05:43:00,
2013-01-25 00:48:00,-7.8,-11.3,30.49,WNW,292,2.1,2.3,84,0.00,SCT,,0.00,WeatherDisplay:10.37,2013-01-25 05:48:00,
2013-01-25 00:53:00,-7.8,-11.3,30.48,WNW,292,0.0,0.0,84,0.00,SCT,,0.00,WeatherDisplay:10.37,2013-01-25 05:53:00,
2013-01-25 00:58:00,-7.4,-11.0,30.48,WNW,292,2.1,2.3,84,0.00,SCT,,0.00,WeatherDisplay:10.37,2013-01-25 05:58:00,
2013-01-25 01:03:00,-7.6,-11.1,30.48,WNW,292,0.0,1.1,84,0.00,SCT,,0.00,WeatherDisplay:10.37,2013-01-25 06:03:00,
2013-01-25 01:08:00,-7.4,-11.0,30.48,WNW,292,0.0,0.0,84,0.00,SCT,,0.00,WeatherDisplay:10.37,2013-01-25 06:08:00,
2013-01-25 01:13:00,-7.8,-11.3,30.48,WNW,292,0.0,0.0,84,0.00,BKN,,0.00,WeatherDisplay:10.37,2013-01-25 06:13:00,
2013-01-25 01:18:00,-7.6,-11.1,30.47,WNW,292,0.0,0.0,84,0.00,BKN,,0.00,WeatherDisplay:10.37,2013-01-25 06:18:00,
2013-01-25 01:23:00,-8.0,-11.5,30.47,WNW,292,0.0,0.0,84,0.00,BKN,,0.00,WeatherDisplay:10.37,2013-01-25 06:23:00,
2013-01-25 01:28:00,-7.6,-11.1,30.46,WNW,292,0.0,0.0,84,0.00,BKN,,0.00,WeatherDisplay:10.37,2013-01-25 06:28:00,
2013-01-25 01:33:00,-7.8,-11.3,30.46,WNW,292,0.0,0.0,84,0.00,BKN,,0.00,WeatherDisplay:10.37,2013-01-25 06:33:00,
2013-01-25 01:38:00,-7.4,-11.0,30.47,WNW,292,0.0,0.0,84,0.00,BKN,,0.00,WeatherDisplay:10.37,2013-01-25 06:38:00,
2013-01-25 01:43:00,-7.4,-11.0,30.47,WNW,292,0.0,0.0,84,0.00,BKN,,0.00,WeatherDisplay:10.37,2013-01-25 06:43:00,
2013-01-25 01:48:00,-7.4,-11.0,30.47,WNW,292,0.0,0.0,84,0.00,BKN,,0.00,WeatherDisplay:10.37,2013-01-25 06:48:00,
2013-01-25 01:53:00,-7.2,-10.8,30.47,WNW,292,0.0,0.0,84,0.00,BKN,,0.00,WeatherDisplay:10.37,2013-01-25 06:53:00,
2013-01-25 01:58:00,-7.6,-11.1,30.47,WNW,292,0.0,0.0,84,0.00,BKN,,0.00,WeatherDisplay:10.37,2013-01-25 06:58:00,
2013-01-25 02:03:00,-7.1,-10.7,30.47,WNW,292,0.0,0.0,84,0.00,BKN,,0.00,WeatherDisplay:10.37,2013-01-25 07:03:00,
2013-01-25 02:08:00,-7.8,-11.3,30.47,WNW,292,0.0,0.0,84,0.00,BKN,,0.00,WeatherDisplay:10.37,2013-01-25 07:08:00,
2013-01-25 02:13:00,-6.9,-10.5,30.47,WNW,292,0.0,0.0,84,0.00,BKN,,0.00,WeatherDisplay:10.37,2013-01-25 07:13:00,
2013-01-25 02:18:00,-7.1,-10.7,30.48,WNW,292,0.0,0.0,84,0.00,BKN,,0.00,WeatherDisplay:10.37,2013-01-25 07:18:00,
2013-01-25 02:23:00,-7.4,-11.0,30.48,WNW,292,0.0,0.0,84,0.00,BKN,,0.00,WeatherDisplay:10.37,2013-01-25 07:23:00,
2013-01-25 02:29:00,-6.9,-10.2,30.48,WNW,292,0.0,0.0,85,0.00,BKN,,0.00,WeatherDisplay:10.37,2013-01-25 07:29:00,
2013-01-25 02:34:00,-6.9,-10.2,30.48,WNW,292,0.0,0.0,85,0.00,BKN,,0.00,WeatherDisplay:10.37,2013-01-25 07:34:00,
2013-01-25 02:39:00,-6.9,-10.2,30.48,WNW,292,0.0,0.0,85,0.00,BKN,,0.00,WeatherDisplay:10.37,2013-01-25 07:39:00,
2013-01-25 02:44:00,-7.1,-10.4,30.48,WNW,292,0.0,0.0,85,0.00,BKN,,0.00,WeatherDisplay:10.37,2013-01-25 07:44:00,
2013-01-25 02:49:00,-6.9,-10.2,30.48,WNW,292,0.0,0.0,85,0.00,BKN,,0.00,WeatherDisplay:10.37,2013-01-25 07:49:00,
2013-01-25 02:54:00,-6.3,-9.6,30.48,WNW,292,0.0,0.0,85,0.00,BKN,,0.00,WeatherDisplay:10.37,2013-01-25 07:54:00,
2013-01-25 02:59:00,-6.0,-9.3,30.48,WNW,292,0.9,2.2,85,0.00,BKN,,0.00,WeatherDisplay:10.37,2013-01-25 07:59:00,
2013-01-25 03:04:00,-5.8,-9.1,30.48,WNW,292,0.0,0.0,85,0.00,BKN,,0.00,WeatherDisplay:10.37,2013-01-25 08:04:00,
2013-01-25 03:09:00,-5.6,-8.9,30.48,WNW,292,0.0,0.0,85,0.00,BKN,,0.00,WeatherDisplay:10.37,2013-01-25 08:09:00,
2013-01-25 03:14:00,-5.4,-8.7,30.48,WNW,292,0.0,0.0,85,0.00,BKN,,0.00,WeatherDisplay:10.37,2013-01-25 08:14:00,
2013-01-25 03:19:00,-5.3,-8.6,30.47,WNW,292,1.0,1.1,85,0.00,BKN,,0.00,WeatherDisplay:10.37,2013-01-25 08:19:00,
2013-01-25 03:24:00,-4.9,-8.3,30.47,WNW,292,0.0,0.0,85,0.00,BKN,,0.00,WeatherDisplay:10.37,2013-01-25 08:24:00,
2013-01-25 03:29:00,-4.4,-7.5,30.46,WNW,292,0.0,0.0,86,0.00,BKN,,0.00,WeatherDisplay:10.37,2013-01-25 08:29:00,
2013-01-25 03:34:00,-3.3,-6.4,30.46,West,270,3.7,4.7,86,0.00,BKN,,0.00,WeatherDisplay:10.37,2013-01-25 08:34:00,
2013-01-25 03:39:00,-3.8,-7.2,30.46,West,270,2.3,3.5,85,0.00,BKN,,0.00,WeatherDisplay:10.37,2013-01-25 08:39:00,
2013-01-25 03:44:00,-3.5,-6.9,30.46,West,270,2.3,2.7,85,0.00,BKN,,0.00,WeatherDisplay:10.37,2013-01-25 08:44:00,
2013-01-25 03:49:00,-3.3,-6.7,30.46,West,270,2.0,2.3,85,0.00,BKN,,0.00,WeatherDisplay:10.37,2013-01-25 08:49:00,
2013-01-25 03:54:00,-2.9,-6.3,30.46,West,270,1.7,3.5,85,0.00,BKN,,0.00,WeatherDisplay:10.37,2013-01-25 08:54:00,
2013-01-25 03:59:00,-2.7,-6.1,30.46,West,270,2.0,2.3,85,0.00,BKN,,0.00,WeatherDisplay:10.37,2013-01-25 08:59:00,
2013-01-25 04:04:00,-2.6,-6.0,30.46,West,270,1.9,2.7,85,0.00,BKN,,0.00,WeatherDisplay:10.37,2013-01-25 09:04:00,
2013-01-25 04:09:00,-2.4,-5.8,30.46,West,270,2.8,3.2,85,0.00,BKN,,0.00,WeatherDisplay:10.37,2013-01-25 09:09:00,
2013-01-25 04:14:00,-2.2,-5.6,30.46,West,270,2.5,2.5,85,0.00,BKN,,0.00,WeatherDisplay:10.37,2013-01-25 09:14:00,
2013-01-25 04:19:00,-2.2,-5.6,30.44,West,270,1.8,2.3,85,0.00,BKN,,0.00,WeatherDisplay:10.37,2013-01-25 09:19:00,
2013-01-25 04:24:00,-2.2,-5.6,30.44,West,270,2.3,2.3,85,0.00,BKN,,0.00,WeatherDisplay:10.37,2013-01-25 09:24:00,
2013-01-25 04:29:00,-1.7,-5.1,30.43,WSW,248,2.2,2.3,85,0.00,BKN,,0.00,WeatherDisplay:10.37,2013-01-25 09:29:00,
2013-01-25 04:34:00,-1.7,-4.9,30.43,WSW,248,2.2,2.3,86,0.00,BKN,,0.00,WeatherDisplay:10.37,2013-01-25 09:34:00,
2013-01-25 04:39:00,-1.1,-4.3,30.42,WSW,248,2.2,2.3,86,0.00,BKN,,0.00,WeatherDisplay:10.37,2013-01-25 09:39:00,
2013-01-25 04:44:00,-0.9,-4.1,30.42,SW,225,2.7,3.5,86,0.00,BKN,,0.00,WeatherDisplay:10.37,2013-01-25 09:44:00,
2013-01-25 04:49:00,-0.9,-4.1,30.42,SSW,202,3.4,4.6,86,0.00,BKN,,0.00,WeatherDisplay:10.37,2013-01-25 09:49:00,
2013-01-25 04:54:00,-0.9,-4.1,30.41,South,180,2.9,3.5,86,0.00,BKN,,0.00,WeatherDisplay:10.37,2013-01-25 09:54:00,
2013-01-25 04:59:00,-0.9,-4.1,30.41,South,180,3.3,4.6,86,0.00,BKN,,0.00,WeatherDisplay:10.37,2013-01-25 09:59:00,
2013-01-25 05:04:00,-0.9,-4.1,30.40,South,180,3.0,3.5,86,0.00,BKN,,0.00,WeatherDisplay:10.37,2013-01-25 10:04:00,
2013-01-25 05:09:00,-0.8,-4.0,30.40,South,180,2.8,3.5,86,0.00,BKN,,0.00,WeatherDisplay:10.37,2013-01-25 10:09:00,
2013-01-25 05:14:00,-0.8,-4.0,30.40,South,180,1.8,2.3,86,0.00,BKN,,0.00,WeatherDisplay:10.37,2013-01-25 10:14:00,
2013-01-25 05:19:00,-0.4,-3.6,30.40,South,180,2.1,2.3,86,0.00,BKN,,0.00,WeatherDisplay:10.37,2013-01-25 10:19:00,
2013-01-25 05:24:00,-0.4,-3.6,30.40,South,180,2.2,2.3,86,0.00,BKN,,0.00,WeatherDisplay:10.37,2013-01-25 10:24:00,
2013-01-25 05:29:00,-0.2,-3.4,30.39,South,180,2.5,3.5,86,0.00,BKN,,0.00,WeatherDisplay:10.37,2013-01-25 10:29:00,
2013-01-25 05:34:00,0.0,-3.2,30.39,SSE,158,2.0,2.7,86,0.00,BKN,,0.00,WeatherDisplay:10.37,2013-01-25 10:34:00,
2013-01-25 05:39:00,0.1,-3.1,30.38,SSE,158,2.2,2.7,86,0.00,BKN,,0.00,WeatherDisplay:10.37,2013-01-25 10:39:00,
2013-01-25 05:44:00,0.3,-2.9,30.38,SSE,158,1.8,2.3,86,0.00,BKN,,0.00,WeatherDisplay:10.37,2013-01-25 10:44:00,
2013-01-25 05:49:00,0.5,-2.5,30.38,SSE,158,1.8,2.3,87,0.00,BKN,,0.00,WeatherDisplay:10.37,2013-01-25 10:49:00,
2013-01-25 05:54:00,0.5,-2.5,30.39,SSE,158,1.6,2.3,87,0.00,BKN,,0.00,WeatherDisplay:10.37,2013-01-25 10:54:00,
2013-01-25 05:59:00,0.7,-2.3,30.39,SSE,158,1.7,1.7,87,0.00,BKN,,0.00,WeatherDisplay:10.37,2013-01-25 10:59:00,
2013-01-25 06:04:00,0.9,-2.1,30.39,SSE,158,2.4,2.4,87,0.00,BKN,,0.00,WeatherDisplay:10.37,2013-01-25 11:04:00,
2013-01-25 06:09:00,1.0,-2.0,30.39,SSE,158,2.5,2.5,87,0.00,BKN,,0.00,WeatherDisplay:10.37,2013-01-25 11:09:00,
2013-01-25 06:14:00,1.2,-1.8,30.39,SSE,158,2.6,3.5,87,0.00,BKN,,0.00,WeatherDisplay:10.37,2013-01-25 11:14:00,
2013-01-25 06:19:00,1.2,-1.8,30.39,SSE,158,2.9,3.5,87,0.00,BKN,,0.00,WeatherDisplay:10.37,2013-01-25 11:19:00,
2013-01-25 06:24:00,1.4,-1.6,30.39,SSE,158,3.3,4.6,87,0.00,OVC,,0.00,WeatherDisplay:10.37,2013-01-25 11:24:00,
2013-01-25 06:29:00,1.8,-1.2,30.38,SE,135,3.7,4.7,87,0.00,OVC,,0.00,WeatherDisplay:10.37,2013-01-25 11:29:00,
2013-01-25 06:34:00,1.9,-1.1,30.38,SSE,158,4.1,4.6,87,0.00,OVC,,0.00,WeatherDisplay:10.37,2013-01-25 11:34:00,
2013-01-25 06:39:00,2.1,-0.9,30.37,SE,135,4.1,5.8,87,0.00,OVC,,0.00,WeatherDisplay:10.37,2013-01-25 11:39:00,
2013-01-25 06:44:00,2.3,-0.7,30.37,SSE,158,4.1,4.7,87,0.00,OVC,,0.00,WeatherDisplay:10.37,2013-01-25 11:44:00,
2013-01-25 06:49:00,2.5,-0.5,30.37,SSE,158,3.3,3.5,87,0.00,OVC,,0.00,WeatherDisplay:10.37,2013-01-25 11:49:00,
2013-01-25 06:54:00,2.5,-0.5,30.36,SE,135,4.5,4.7,87,0.00,OVC,,0.00,WeatherDisplay:10.37,2013-01-25 11:54:00,
2013-01-25 06:59:00,2.7,-0.3,30.36,SSE,158,3.4,3.7,87,0.00,OVC,,0.00,WeatherDisplay:10.37,2013-01-25 11:59:00,
2013-01-25 07:04:00,2.8,-0.2,30.36,SE,135,2.9,3.7,87,0.00,OVC,,0.00,WeatherDisplay:10.37,2013-01-25 12:04:00,
2013-01-25 07:09:00,3.0,0.0,30.36,SSE,158,2.4,3.5,87,0.00,OVC,,0.00,WeatherDisplay:10.37,2013-01-25 12:09:00,
2013-01-25 07:14:00,3.0,0.0,30.36,SSE,158,2.4,2.7,87,0.00,OVC,,0.00,WeatherDisplay:10.37,2013-01-25 12:14:00,
2013-01-25 07:19:00,3.4,0.4,30.36,SSE,158,3.1,4.6,87,0.00,OVC,,0.00,WeatherDisplay:10.37,2013-01-25 12:19:00,
2013-01-25 07:24:00,3.4,0.4,30.36,SE,135,3.3,3.5,87,0.00,OVC,,0.00,WeatherDisplay:10.37,2013-01-25 12:24:00,
2013-01-25 07:29:00,3.6,0.6,30.35,SE,135,3.1,3.5,87,0.00,OVC,,0.00,WeatherDisplay:10.37,2013-01-25 12:29:00,
2013-01-25 07:34:00,3.6,0.6,30.35,SSE,158,3.3,3.5,87,0.00,OVC,,0.00,WeatherDisplay:10.37,2013-01-25 12:34:00,
2013-01-25 07:39:00,3.6,0.6,30.34,SSE,158,3.4,4.6,87,0.00,OVC,,0.00,WeatherDisplay:10.37,2013-01-25 12:39:00,
2013-01-25 07:44:00,3.7,0.7,30.34,SSE,158,3.6,4.6,87,0.00,OVC,,0.00,WeatherDisplay:10.37,2013-01-25 12:44:00,
2013-01-25 07:49:00,3.7,0.7,30.34,SSE,158,3.5,3.5,87,0.00,OVC,,0.00,WeatherDisplay:10.37,2013-01-25 12:49:00,
2013-01-25 07:54:00,3.7,0.7,30.34,SE,135,4.1,4.7,87,0.00,OVC,,0.00,WeatherDisplay:10.37,2013-01-25 12:54:00,
2013-01-25 07:59:00,3.9,0.9,30.34,SSE,158,4.0,4.6,87,0.00,OVC,,0.00,WeatherDisplay:10.37,2013-01-25 12:59:00,
2013-01-25 08:04:00,3.9,0.9,30.33,SSE,158,4.5,5.8,87,0.00,OVC,,0.00,WeatherDisplay:10.37,2013-01-25 13:04:00,
2013-01-25 08:09:00,4.3,1.3,30.33,SSE,158,4.1,5.8,87,0.00,OVC,,0.00,WeatherDisplay:10.37,2013-01-25 13:09:00,
2013-01-25 08:14:00,4.5,1.2,30.33,SE,135,4.5,5.8,86,0.00,OVC,,0.00,WeatherDisplay:10.37,2013-01-25 13:14:00,
2013-01-25 08:19:00,4.6,1.3,30.33,SSE,158,4.1,4.6,86,0.00,OVC,,0.00,WeatherDisplay:10.37,2013-01-25 13:19:00,
2013-01-25 08:24:00,4.8,1.3,30.33,East,90,3.9,5.8,85,0.00,OVC,,0.00,WeatherDisplay:10.37,2013-01-25 13:24:00,
2013-01-25 08:29:00,5.2,1.4,30.33,SSE,158,4.5,5.8,84,0.00,OVC,,0.00,WeatherDisplay:10.37,2013-01-25 13:29:00,
2013-01-25 08:34:00,5.7,1.9,30.33,SSE,158,4.2,5.8,84,0.00,OVC,,0.00,WeatherDisplay:10.37,2013-01-25 13:34:00,
2013-01-25 08:39:00,5.9,1.8,30.33,SSE,158,4.2,4.6,83,0.00,OVC,,0.00,WeatherDisplay:10.37,2013-01-25 13:39:00,
2013-01-25 08:44:00,6.4,2.1,30.33,SSE,158,3.4,4.6,82,0.00,OVC,,0.00,WeatherDisplay:10.37,2013-01-25 13:44:00,
2013-01-25 08:49:00,7.0,2.7,30.33,SSE,158,3.1,4.6,82,0.00,OVC,,0.00,WeatherDisplay:10.37,2013-01-25 13:49:00,
2013-01-25 08:54:00,7.5,2.9,30.32,SE,135,3.8,4.6,81,0.00,OVC,,0.00,WeatherDisplay:10.37,2013-01-25 13:54:00,
2013-01-25 08:59:00,7.7,2.8,30.32,SSE,158,4.2,5.8,80,0.00,OVC,,0.00,WeatherDisplay:10.37,2013-01-25 13:59:00,
2013-01-25 09:04:00,8.1,3.2,30.32,SSE,158,5.3,5.8,80,0.00,OVC,,0.00,WeatherDisplay:10.37,2013-01-25 14:04:00,
2013-01-25 09:09:00,8.4,3.2,30.32,SSE,158,4.1,4.6,79,0.00,OVC,,0.00,WeatherDisplay:10.37,2013-01-25 14:09:00,
2013-01-25 09:14:00,8.6,3.4,30.30,SSE,158,4.5,5.8,79,0.00,OVC,,0.00,WeatherDisplay:10.37,2013-01-25 14:14:00,
2013-01-25 09:19:00,9.1,3.6,30.30,SSE,158,3.7,4.6,78,0.00,OVC,,0.00,WeatherDisplay:10.37,2013-01-25 14:19:00,
2013-01-25 09:24:00,9.7,3.9,30.30,SSE,158,4.5,4.7,77,0.00,OVC,,0.00,WeatherDisplay:10.37,2013-01-25 14:24:00,
2013-01-25 09:29:00,10.0,3.9,30.30,SSE,158,4.1,5.8,76,0.00,OVC,,0.00,WeatherDisplay:10.37,2013-01-25 14:29:00,
2013-01-25 09:34:00,10.6,4.2,30.30,SSE,158,3.3,3.5,75,0.00,OVC,,0.00,WeatherDisplay:10.37,2013-01-25 14:34:00,
2013-01-25 09:39:00,10.9,4.2,30.29,SSE,158,3.7,4.6,74,0.00,OVC,,0.00,WeatherDisplay:10.37,2013-01-25 14:39:00,
2013-01-25 09:44:00,11.5,4.5,30.29,SE,135,3.6,4.6,73,0.00,OVC,,0.00,WeatherDisplay:10.37,2013-01-25 14:44:00,
2013-01-25 09:49:00,11.5,4.5,30.29,SSE,158,3.6,4.6,73,0.00,OVC,,0.00,WeatherDisplay:10.37,2013-01-25 14:49:00,
2013-01-25 09:54:00,12.2,4.9,30.28,ESE,112,2.3,2.7,72,0.00,OVC,,0.00,WeatherDisplay:10.37,2013-01-25 14:54:00,
2013-01-25 09:59:00,12.2,4.9,30.28,SSE,158,4.0,5.8,72,0.00,OVC,,0.00,WeatherDisplay:10.37,2013-01-25 14:59:00,
2013-01-25 10:04:00,12.0,4.7,30.28,South,180,4.6,5.8,72,0.00,OVC,,0.00,WeatherDisplay:10.37,2013-01-25 15:04:00,
2013-01-25 10:09:00,12.4,5.1,30.28,ESE,112,4.7,6.3,72,0.00,OVC,,0.00,WeatherDisplay:10.37,2013-01-25 15:09:00,
2013-01-25 10:14:00,12.6,5.0,30.28,SE,135,4.2,4.6,71,0.00,OVC,,0.00,WeatherDisplay:10.37,2013-01-25 15:14:00,
2013-01-25 10:19:00,12.9,5.0,30.27,South,180,5.4,5.8,70,0.00,OVC,,0.00,WeatherDisplay:10.37,2013-01-25 15:19:00,
2013-01-25 10:24:00,13.6,5.3,30.27,SSE,158,2.9,3.7,69,0.00,OVC,,0.00,WeatherDisplay:10.37,2013-01-25 15:24:00,
2013-01-25 10:29:00,14.4,5.8,30.26,SE,135,3.0,3.5,68,0.00,OVC,,0.00,WeatherDisplay:10.37,2013-01-25 15:29:00,
2013-01-25 10:34:00,14.7,5.4,30.26,SE,135,4.7,5.8,66,0.00,OVC,,0.00,WeatherDisplay:10.37,2013-01-25 15:34:00,
2013-01-25 10:39:00,14.4,5.1,30.26,SE,135,4.3,4.6,66,0.00,OVC,,0.00,WeatherDisplay:10.37,2013-01-25 15:39:00,
2013-01-25 10:44:00,15.4,5.7,30.26,ESE,112,3.2,3.7,65,0.00,OVC,,0.00,WeatherDisplay:10.37,2013-01-25 15:44:00,
2013-01-25 10:49:00,15.1,4.8,30.26,ESE,112,5.2,5.8,63,0.00,OVC,,0.00,WeatherDisplay:10.37,2013-01-25 15:49:00,
2013-01-25 10:54:00,14.4,4.4,30.25,SSE,158,6.7,6.9,64,0.00,OVC,,0.00,WeatherDisplay:10.37,2013-01-25 15:54:00,
2013-01-25 10:59:00,14.7,4.7,30.25,SW,225,6.2,6.9,64,0.00,OVC,,0.00,WeatherDisplay:10.37,2013-01-25 15:59:00,
2013-01-25 11:04:00,15.1,5.1,30.25,ESE,112,4.4,5.8,64,0.00,OVC,,0.00,WeatherDisplay:10.37,2013-01-25 16:04:00,
2013-01-25 11:09:00,15.4,5.0,30.25,SSE,158,4.4,5.8,63,0.00,OVC,,0.00,WeatherDisplay:10.37,2013-01-25 16:09:00,
2013-01-25 11:14:00,15.8,4.7,30.25,South,180,5.6,5.8,61,0.00,OVC,,0.00,WeatherDisplay:10.37,2013-01-25 16:14:00,
2013-01-25 11:19:00,16.2,5.1,30.25,SE,135,4.6,5.8,61,0.00,OVC,,0.00,WeatherDisplay:10.37,2013-01-25 16:19:00,
2013-01-25 11:24:00,16.5,5.0,30.25,SE,135,5.8,6.9,60,0.00,OVC,,0.00,WeatherDisplay:10.37,2013-01-25 16:24:00,
2013-01-25 11:29:00,17.1,5.2,30.24,SE,135,4.7,6.9,59,0.00,OVC,,0.00,WeatherDisplay:10.37,2013-01-25 16:29:00,
2013-01-25 11:34:00,17.1,5.2,30.24,South,180,4.8,4.8,59,0.00,OVC,,0.00,WeatherDisplay:10.37,2013-01-25 16:34:00,
2013-01-25 11:39:00,16.3,4.5,30.24,SSE,158,6.8,8.1,59,0.00,OVC,,0.00,WeatherDisplay:10.37,2013-01-25 16:39:00,
2013-01-25 11:44:00,16.5,4.7,30.22,South,180,5.4,5.8,59,0.00,OVC,,0.00,WeatherDisplay:10.37,2013-01-25 16:44:00,
2013-01-25 11:49:00,17.2,4.9,30.22,South,180,6.1,8.1,58,0.00,OVC,,0.00,WeatherDisplay:10.37,2013-01-25 16:49:00,
2013-01-25 11:54:00,16.7,4.5,30.22,South,180,8.0,10.4,58,0.00,OVC,,0.00,WeatherDisplay:10.37,2013-01-25 16:54:00,
2013-01-25 11:59:00,17.4,5.5,30.22,SE,135,4.6,5.3,59,0.00,OVC,,0.00,WeatherDisplay:10.37,2013-01-25 16:59:00,
2013-01-25 12:04:00,18.0,5.3,30.20,South,180,5.3,6.3,57,0.00,OVC,,0.00,WeatherDisplay:10.37,2013-01-25 17:04:00,
2013-01-25 12:09:00,18.3,6.0,30.20,South,180,4.5,5.8,58,0.00,OVC,,0.00,WeatherDisplay:10.37,2013-01-25 17:09:00,
2013-01-25 12:14:00,18.5,5.4,30.20,SSE,158,4.2,5.8,56,0.00,OVC,,0.00,WeatherDisplay:10.37,2013-01-25 17:14:00,
2013-01-25 12:19:00,18.3,5.6,30.20,SSW,202,3.8,5.8,57,0.00,OVC,,0.00,WeatherDisplay:10.37,2013-01-25 17:19:00,
2013-01-25 12:24:00,19.0,5.5,30.20,SSE,158,5.0,5.8,55,0.00,OVC,,0.00,WeatherDisplay:10.37,2013-01-25 17:24:00,
2013-01-25 12:29:00,19.4,5.4,30.19,SE,135,4.1,5.8,54,0.00,OVC,,0.00,WeatherDisplay:10.37,2013-01-25 17:29:00,
2013-01-25 12:34:00,19.4,6.2,30.19,SSE,158,2.6,3.5,56,0.00,OVC,,0.00,WeatherDisplay:10.37,2013-01-25 17:34:00,
2013-01-25 12:39:00,20.7,6.2,30.18,South,180,3.9,5.8,53,0.00,OVC,,0.00,WeatherDisplay:10.37,2013-01-25 17:39:00,
2013-01-25 12:44:00,20.1,5.7,30.18,SSE,158,3.6,4.6,53,0.00,OVC,,0.00,WeatherDisplay:10.37,2013-01-25 17:44:00,
2013-01-25 12:49:00,20.5,6.1,30.18,SE,135,4.0,6.3,53,0.00,OVC,,0.00,WeatherDisplay:10.37,2013-01-25 17:49:00,
2013-01-25 12:54:00,19.9,5.5,30.17,SSE,158,4.4,5.8,53,0.00,OVC,,0.00,WeatherDisplay:10.37,2013-01-25 17:54:00,
2013-01-25 12:59:00,21.2,5.9,30.17,SW,225,1.0,1.1,51,0.00,OVC,,0.00,WeatherDisplay:10.37,2013-01-25 17:59:00,
2013-01-25 13:04:00,21.4,6.5,30.16,SSE,158,3.8,4.6,52,0.00,OVC,,0.00,WeatherDisplay:10.37,2013-01-25 18:04:00,
2013-01-25 13:09:00,20.8,5.9,30.16,SSE,158,4.0,4.6,52,0.00,OVC,,0.00,WeatherDisplay:10.37,2013-01-25 18:09:00,
2013-01-25 13:14:00,21.0,5.7,30.16,SSE,158,2.8,3.5,51,0.00,OVC,,0.00,WeatherDisplay:10.37,2013-01-25 18:14:00,
2013-01-25 13:19:00,21.2,5.9,30.15,SE,135,2.2,3.5,51,0.00,OVC,,0.00,WeatherDisplay:10.37,2013-01-25 18:19:00,
2013-01-25 13:24:00,21.9,6.1,30.15,SE,135,3.6,4.6,50,0.00,OVC,,0.00,WeatherDisplay:10.37,2013-01-25 18:24:00,
2013-01-25 13:29:00,21.9,5.6,30.15,SE,135,1.8,4.6,49,0.00,OVC,,0.00,WeatherDisplay:10.37,2013-01-25 18:29:00,
2013-01-25 13:34:00,19.9,5.5,30.15,SE,135,1.9,2.7,53,0.00,OVC,,0.00,WeatherDisplay:10.37,2013-01-25 18:34:00,
2013-01-25 13:39:00,20.8,5.9,30.14,ESE,112,2.9,3.5,52,0.00,OVC,,0.00,WeatherDisplay:10.37,2013-01-25 18:39:00,
2013-01-25 13:44:00,21.4,5.6,30.14,SE,135,2.4,2.4,50,0.00,OVC,,0.00,WeatherDisplay:10.37,2013-01-25 18:44:00,
2013-01-25 13:49:00,20.5,5.6,30.14,SSE,158,2.4,2.4,52,0.00,OVC,,0.00,WeatherDisplay:10.37,2013-01-25 18:49:00,
2013-01-25 13:54:00,21.0,5.7,30.13,ESE,112,3.0,4.2,51,0.00,OVC,,0.00,WeatherDisplay:10.37,2013-01-25 18:54:00,
2013-01-25 13:59:00,20.5,5.2,30.13,SE,135,2.3,3.5,51,0.00,OVC,,0.00,WeatherDisplay:10.37,2013-01-25 18:59:00,
2013-01-25 14:04:00,20.5,5.6,30.13,South,180,2.9,3.7,52,0.00,OVC,,0.00,WeatherDisplay:10.37,2013-01-25 19:04:00,
2013-01-25 14:09:00,20.1,4.4,30.13,South,180,2.7,2.7,50,0.00,OVC,,0.00,WeatherDisplay:10.37,2013-01-25 19:09:00,
2013-01-25 14:14:00,20.1,5.3,30.13,South,180,2.4,3.5,52,0.00,OVC,,0.00,WeatherDisplay:10.37,2013-01-25 19:14:00,
2013-01-25 14:19:00,20.1,5.3,30.12,SE,135,2.6,3.7,52,0.00,OVC,,0.00,WeatherDisplay:10.37,2013-01-25 19:19:00,
2013-01-25 14:24:00,19.8,5.0,30.12,ESE,112,2.8,4.6,52,0.00,OVC,,0.00,WeatherDisplay:10.37,2013-01-25 19:24:00,
2013-01-25 14:29:00,18.9,5.4,30.11,East,90,2.9,3.5,55,0.00,OVC,,0.00,WeatherDisplay:10.37,2013-01-25 19:29:00,
2013-01-25 14:34:00,18.5,5.4,30.11,ENE,68,4.0,4.6,56,0.00,OVC,,0.00,WeatherDisplay:10.37,2013-01-25 19:34:00,
2013-01-25 14:39:00,18.5,5.0,30.11,ESE,112,4.1,5.3,55,0.00,OVC,,0.00,WeatherDisplay:10.37,2013-01-25 19:39:00,
2013-01-25 14:44:00,18.5,5.4,30.11,West,270,3.8,4.6,56,0.00,OVC,,0.00,WeatherDisplay:10.37,2013-01-25 19:44:00,
2013-01-25 14:49:00,18.3,5.2,30.11,ESE,112,3.7,4.7,56,0.00,OVC,,0.00,WeatherDisplay:10.37,2013-01-25 19:49:00,
2013-01-25 14:54:00,18.1,5.4,30.10,SE,135,4.3,5.8,57,0.00,OVC,,0.00,WeatherDisplay:10.37,2013-01-25 19:54:00,
2013-01-25 14:59:00,18.1,6.5,30.10,East,90,3.4,4.6,60,0.00,OVC,,0.00,WeatherDisplay:10.37,2013-01-25 19:59:00,
2013-01-25 15:04:00,17.8,6.6,30.09,NE,45,2.3,3.5,61,0.00,OVC,,0.00,WeatherDisplay:10.37,2013-01-25 20:04:00,
2013-01-25 15:09:00,18.0,6.4,30.09,SSE,158,3.7,4.6,60,0.00,OVC,,0.00,WeatherDisplay:10.37,2013-01-25 20:09:00,
2013-01-25 15:14:00,17.6,5.7,30.09,SE,135,4.8,5.8,59,0.00,-SN,,0.00,WeatherDisplay:10.37,2013-01-25 20:14:00,
2013-01-25 15:19:00,17.4,5.9,30.09,South,180,2.6,3.5,60,0.00,-SN,,0.00,WeatherDisplay:10.37,2013-01-25 20:19:00,
2013-01-25 15:24:00,17.1,5.9,30.09,SE,135,4.0,4.6,61,0.00,-SN,,0.00,WeatherDisplay:10.37,2013-01-25 20:24:00,
2013-01-25 15:29:00,17.1,6.3,30.09,SW,225,2.5,3.5,62,0.00,-SN,,0.00,WeatherDisplay:10.37,2013-01-25 20:29:00,
2013-01-25 15:34:00,17.4,6.6,30.09,SSE,158,3.2,3.5,62,0.00,-SN,,0.00,WeatherDisplay:10.37,2013-01-25 20:34:00,
2013-01-25 15:39:00,17.1,7.0,30.08,SSE,158,3.3,4.6,64,0.00,-SN,,0.00,WeatherDisplay:10.37,2013-01-25 20:39:00,
2013-01-25 15:44:00,17.1,7.0,30.08,SSE,158,2.5,2.7,64,0.00,-SN,,0.00,WeatherDisplay:10.37,2013-01-25 20:44:00,
2013-01-25 15:49:00,17.1,7.7,30.08,SW,225,2.8,3.5,66,0.00,-SN,,0.00,WeatherDisplay:10.37,2013-01-25 20:49:00,
2013-01-25 15:54:00,17.1,7.7,30.08,SSE,158,3.4,3.7,66,0.00,-SN,,0.00,WeatherDisplay:10.37,2013-01-25 20:54:00,
2013-01-25 15:59:00,16.9,7.8,30.08,SSE,158,3.9,4.6,67,0.00,-SN,,0.00,WeatherDisplay:10.37,2013-01-25 20:59:00,
2013-01-25 16:04:00,16.5,8.1,30.08,SSE,158,3.8,4.6,69,0.00,-SN,,0.00,WeatherDisplay:10.37,2013-01-25 21:04:00,
2013-01-25 16:09:00,16.2,8.4,30.08,SSE,158,2.7,3.5,71,0.00,-SN,,0.00,WeatherDisplay:10.37,2013-01-25 21:09:00,
2013-01-25 16:14:00,15.8,8.7,30.08,SSE,158,3.7,4.6,73,0.00,-SN,,0.00,WeatherDisplay:10.37,2013-01-25 21:14:00,
2013-01-25 16:19:00,15.8,9.6,30.07,SSE,158,2.5,3.5,76,0.00,-SN,,0.00,WeatherDisplay:10.37,2013-01-25 21:19:00,
2013-01-25 16:24:00,15.4,9.5,30.07,SE,135,2.8,3.5,77,0.00,-SN,,0.00,WeatherDisplay:10.37,2013-01-25 21:24:00,
2013-01-25 16:29:00,15.6,9.7,30.07,SSE,158,3.3,3.5,77,0.00,-SN,,0.00,WeatherDisplay:10.37,2013-01-25 21:29:00,
2013-01-25 16:34:00,15.8,9.9,30.07,ESE,112,3.2,3.7,77,0.00,-SN,,0.00,WeatherDisplay:10.37,2013-01-25 21:34:00,
2013-01-25 16:39:00,15.4,9.8,30.08,SSE,158,2.5,3.5,78,0.00,-SN,,0.00,WeatherDisplay:10.37,2013-01-25 21:39:00,
2013-01-25 16:44:00,15.8,10.2,30.08,SE,135,2.5,2.7,78,0.00,-SN,,0.00,WeatherDisplay:10.37,2013-01-25 21:44:00,
2013-01-25 16:49:00,15.4,9.8,30.08,ESE,112,3.2,3.7,78,0.00,-SN,,0.00,WeatherDisplay:10.37,2013-01-25 21:49:00,
2013-01-25 16:54:00,15.3,10.0,30.08,SSE,158,3.0,3.5,79,0.00,-SN,,0.00,WeatherDisplay:10.37,2013-01-25 21:54:00,
2013-01-25 16:59:00,15.1,9.8,30.08,ESE,112,2.7,3.5,79,0.00,-SN,,0.00,WeatherDisplay:10.37,2013-01-25 21:59:00,
2013-01-25 17:04:00,14.9,9.8,30.07,SE,135,2.2,2.7,80,0.00,-SN,,0.00,WeatherDisplay:10.37,2013-01-25 22:04:00,
2013-01-25 17:09:00,14.5,9.5,30.07,ESE,112,3.4,3.5,80,0.00,-SN,,0.00,WeatherDisplay:10.37,2013-01-25 22:09:00,
2013-01-25 17:14:00,14.4,9.6,30.06,SE,135,2.6,2.6,81,0.00,-SN,,0.00,WeatherDisplay:10.37,2013-01-25 22:14:00,
2013-01-25 17:19:00,14.2,9.4,30.06,SSE,158,3.3,4.6,81,0.00,-SN,,0.00,WeatherDisplay:10.37,2013-01-25 22:19:00,
2013-01-25 17:24:00,14.0,9.2,30.06,ESE,112,2.5,4.6,81,0.00,-SN,,0.00,WeatherDisplay:10.37,2013-01-25 22:24:00,
2013-01-25 17:29:00,13.8,9.3,30.05,South,180,2.5,2.5,82,0.00,-SN,,0.00,WeatherDisplay:10.37,2013-01-25 22:29:00,
2013-01-25 17:34:00,13.6,9.4,30.05,SE,135,2.9,3.5,83,0.00,-SN,,0.00,WeatherDisplay:10.37,2013-01-25 22:34:00,
2013-01-25 17:39:00,13.5,9.3,30.05,SE,135,2.8,3.5,83,0.00,-SN,,0.00,WeatherDisplay:10.37,2013-01-25 22:39:00,
2013-01-25 17:44:00,13.5,9.6,30.05,SSE,158,2.3,2.7,84,0.00,-SN,,0.00,WeatherDisplay:10.37,2013-01-25 22:44:00,
2013-01-25 17:49:00,13.5,9.6,30.05,SSE,158,2.3,2.7,84,0.00,-SN,,0.00,WeatherDisplay:10.37,2013-01-25 22:49:00,
2013-01-25 17:54:00,13.5,9.8,30.05,SSE,158,2.5,3.5,85,0.00,-SN,,0.00,WeatherDisplay:10.37,2013-01-25 22:54:00,
2013-01-25 17:59:00,13.3,9.6,30.05,SSE,158,2.7,2.7,85,0.00,-SN,,0.00,WeatherDisplay:10.37,2013-01-25 22:59:00,
2013-01-25 18:04:00,13.3,9.6,30.05,SSE,158,2.1,2.3,85,0.00,-SN,,0.00,WeatherDisplay:10.37,2013-01-25 23:04:00,
2013-01-25 18:09:00,13.1,9.4,30.05,ESE,112,2.2,2.3,85,0.00,-SN,,0.00,WeatherDisplay:10.37,2013-01-25 23:09:00,
2013-01-25 18:14:00,13.1,9.7,30.05,SE,135,1.7,1.7,86,0.00,-SN,,0.00,WeatherDisplay:10.37,2013-01-25 23:14:00,
2013-01-25 18:19:00,12.9,9.5,30.05,SSE,158,2.0,2.3,86,0.00,-SN,,0.00,WeatherDisplay:10.37,2013-01-25 23:19:00,
2013-01-25 18:24:00,12.9,9.5,30.05,ESE,112,2.3,2.7,86,0.00,-SN,,0.00,WeatherDisplay:10.37,2013-01-25 23:24:00,
2013-01-25 18:29:00,12.7,9.6,30.05,East,90,1.7,2.3,87,0.00,-SN,,0.00,WeatherDisplay:10.37,2013-01-25 23:29:00,
2013-01-25 18:34:00,12.4,9.3,30.05,ESE,112,1.8,2.3,87,0.00,-SN,,0.00,WeatherDisplay:10.37,2013-01-25 23:34:00,
2013-01-25 18:39:00,12.2,9.1,30.05,SE,135,0.7,1.1,87,0.00,-SN,,0.00,WeatherDisplay:10.37,2013-01-25 23:39:00,
2013-01-25 18:44:00,11.7,8.6,30.05,SSE,158,0.0,0.0,87,0.00,-SN,,0.00,WeatherDisplay:10.37,2013-01-25 23:44:00,
2013-01-25 18:49:00,11.5,8.9,30.05,SSE,158,0.0,0.0,89,0.00,-SN,,0.00,WeatherDisplay:10.37,2013-01-25 23:49:00,
2013-01-25 18:54:00,11.5,9.1,30.06,SSE,158,0.0,0.0,90,0.00,-SN,,0.00,WeatherDisplay:10.37,2013-01-25 23:54:00,
2013-01-25 18:59:00,11.3,8.9,30.06,ESE,112,1.5,2.3,90,0.00,-SN,,0.00,WeatherDisplay:10.37,2013-01-25 23:59:00,
2013-01-25 19:04:00,11.1,8.7,30.05,East,90,1.1,1.1,90,0.00,-SN,,0.00,WeatherDisplay:10.37,2013-01-26 00:04:00,
2013-01-25 19:09:00,11.1,8.7,30.05,East,90,0.0,0.0,90,0.00,-SN,,0.00,WeatherDisplay:10.37,2013-01-26 00:09:00,
2013-01-25 19:14:00,10.9,8.5,30.05,ESE,112,0.0,0.0,90,0.00,-SN,,0.00,WeatherDisplay:10.37,2013-01-26 00:14:00,
2013-01-25 19:19:00,10.9,8.8,30.05,East,90,0.1,1.1,91,0.00,-SN,,0.00,WeatherDisplay:10.37,2013-01-26 00:19:00,
2013-01-25 19:24:00,10.9,8.8,30.05,East,90,0.0,0.0,91,0.00,-SN,,0.00,WeatherDisplay:10.37,2013-01-26 00:24:00,
2013-01-25 19:29:00,10.9,8.8,30.05,ESE,112,0.0,0.0,91,0.00,-SN,,0.00,WeatherDisplay:10.37,2013-01-26 00:29:00,
2013-01-25 19:34:00,10.8,8.7,30.05,ESE,112,0.0,0.0,91,0.00,-SN,,0.00,WeatherDisplay:10.37,2013-01-26 00:34:00,
2013-01-25 19:39:00,10.8,8.7,30.05,ESE,112,1.6,1.7,91,0.00,-SN,,0.00,WeatherDisplay:10.37,2013-01-26 00:39:00,
2013-01-25 19:44:00,10.8,8.7,30.05,East,90,0.0,0.0,91,0.00,-SN,,0.00,WeatherDisplay:10.37,2013-01-26 00:44:00,
2013-01-25 19:49:00,10.8,8.7,30.05,NE,45,0.0,0.0,91,0.00,-SN,,0.00,WeatherDisplay:10.37,2013-01-26 00:49:00,
2013-01-25 19:54:00,10.4,8.3,30.05,NE,45,0.0,0.0,91,0.00,-SN,,0.00,WeatherDisplay:10.37,2013-01-26 00:54:00,
2013-01-25 19:59:00,10.2,8.1,30.05,ENE,68,0.5,1.1,91,0.00,-SN,,0.00,WeatherDisplay:10.37,2013-01-26 00:59:00,
2013-01-25 20:04:00,9.9,7.8,30.05,NNE,22,0.7,1.1,91,0.00,-SN,,0.00,WeatherDisplay:10.37,2013-01-26 01:04:00,
2013-01-25 20:09:00,9.9,7.8,30.05,NNE,22,0.0,0.0,91,0.00,-SN,,0.00,WeatherDisplay:10.37,2013-01-26 01:09:00,
2013-01-25 20:14:00,9.7,7.8,30.05,NNE,22,0.0,0.0,92,0.00,-SN,,0.00,WeatherDisplay:10.37,2013-01-26 01:14:00,
2013-01-25 20:19:00,9.7,7.8,30.05,NNE,22,0.0,0.0,92,0.00,-SN,,0.00,WeatherDisplay:10.37,2013-01-26 01:19:00,
2013-01-25 20:24:00,9.7,7.8,30.05,NNE,22,0.0,0.0,92,0.00,-SN,,0.00,WeatherDisplay:10.37,2013-01-26 01:24:00,
2013-01-25 20:29:00,9.7,8.1,30.05,NNE,22,0.0,0.0,93,0.00,-SN,,0.00,WeatherDisplay:10.37,2013-01-26 01:29:00,
2013-01-25 20:34:00,9.5,7.6,30.05,NNE,22,0.0,0.0,92,0.00,-SN,,0.00,WeatherDisplay:10.37,2013-01-26 01:34:00,
2013-01-25 20:39:00,9.5,7.9,30.05,NNE,22,0.0,0.0,93,0.00,-SN,,0.00,WeatherDisplay:10.37,2013-01-26 01:39:00,
2013-01-25 20:44:00,9.5,8.1,30.05,NE,45,0.0,0.0,94,0.00,-SN,,0.00,WeatherDisplay:10.37,2013-01-26 01:44:00,
2013-01-25 20:49:00,9.5,8.1,30.05,East,90,0.0,0.0,94,0.00,-SN,,0.00,WeatherDisplay:10.37,2013-01-26 01:49:00,
2013-01-25 20:54:00,9.3,7.9,30.05,East,90,1.7,1.7,94,0.00,-SN,,0.00,WeatherDisplay:10.37,2013-01-26 01:54:00,
2013-01-25 20:59:00,9.3,7.9,30.05,ESE,112,1.3,1.7,94,0.00,-SN,,0.00,WeatherDisplay:10.37,2013-01-26 01:59:00,
2013-01-25 21:04:00,9.3,7.9,30.04,ENE,68,1.5,1.7,94,0.00,-SN,,0.00,WeatherDisplay:10.37,2013-01-26 02:04:00,
2013-01-25 21:09:00,9.1,7.7,30.04,ESE,112,1.6,1.7,94,0.00,-SN,,0.00,WeatherDisplay:10.37,2013-01-26 02:09:00,
2013-01-25 21:14:00,9.0,7.6,30.04,ESE,112,1.4,1.4,94,0.00,-SN,,0.00,WeatherDisplay:10.37,2013-01-26 02:14:00,
2013-01-25 21:19:00,8.8,7.2,30.04,East,90,0.0,0.0,93,0.00,-SN,,0.00,WeatherDisplay:10.37,2013-01-26 02:19:00,
2013-01-25 21:24:00,8.4,6.8,30.04,East,90,0.0,0.0,93,0.00,-SN,,0.00,WeatherDisplay:10.37,2013-01-26 02:24:00,
2013-01-25 21:29:00,8.2,6.4,30.04,East,90,0.0,0.0,92,0.00,-SN,,0.00,WeatherDisplay:10.37,2013-01-26 02:29:00,
2013-01-25 21:34:00,7.7,5.9,30.04,East,90,0.0,0.0,92,0.00,-SN,,0.00,WeatherDisplay:10.37,2013-01-26 02:34:00,
2013-01-25 21:39:00,7.3,5.5,30.04,ESE,112,0.0,0.0,92,0.00,-SN,,0.00,WeatherDisplay:10.37,2013-01-26 02:39:00,
2013-01-25 21:44:00,7.0,5.2,30.04,ESE,112,0.0,0.0,92,0.00,-SN,,0.00,WeatherDisplay:10.37,2013-01-26 02:44:00,
2013-01-25 21:49:00,6.8,5.2,30.04,ESE,112,0.0,0.0,93,0.00,-SN,,0.00,WeatherDisplay:10.37,2013-01-26 02:49:00,
2013-01-25 21:54:00,6.4,4.8,30.04,ESE,112,0.0,0.0,93,0.00,-SN,,0.00,WeatherDisplay:10.37,2013-01-26 02:54:00,
2013-01-25 21:59:00,6.3,4.9,30.04,ESE,112,1.7,1.7,94,0.00,-SN,,0.00,WeatherDisplay:10.37,2013-01-26 02:59:00,
2013-01-25 22:04:00,6.3,4.9,30.05,ESE,112,1.7,1.7,94,0.00,-SN,,0.00,WeatherDisplay:10.37,2013-01-26 03:04:00,
2013-01-25 22:09:00,6.1,4.7,30.05,ESE,112,1.7,2.3,94,0.00,-SN,,0.00,WeatherDisplay:10.37,2013-01-26 03:09:00,
2013-01-25 22:14:00,5.7,4.1,30.05,ESE,112,1.9,2.3,93,0.00,-SN,,0.00,WeatherDisplay:10.37,2013-01-26 03:14:00,
2013-01-25 22:19:00,5.5,3.9,30.04,ESE,112,1.5,1.7,93,0.00,-SN,,0.00,WeatherDisplay:10.37,2013-01-26 03:19:00,
2013-01-25 22:24:00,5.4,3.8,30.04,ESE,112,1.8,2.3,93,0.00,-SN,,0.00,WeatherDisplay:10.37,2013-01-26 03:24:00,
2013-01-25 22:29:00,5.2,3.6,30.05,ESE,112,0.0,0.0,93,0.00,-SN,,0.00,WeatherDisplay:10.37,2013-01-26 03:29:00,
2013-01-25 22:34:00,5.0,3.4,30.05,ESE,112,0.0,0.0,93,0.00,-SN,,0.00,WeatherDisplay:10.37,2013-01-26 03:34:00,
2013-01-25 22:39:00,5.0,3.4,30.05,ESE,112,0.0,0.0,93,0.00,-SN,,0.00,WeatherDisplay:10.37,2013-01-26 03:39:00,
2013-01-25 22:44:00,5.0,3.4,30.05,ESE,112,0.0,0.0,93,0.00,-SN,,0.00,WeatherDisplay:10.37,2013-01-26 03:44:00,
2013-01-25 22:49:00,4.8,3.2,30.05,ESE,112,0.0,0.0,93,0.00,-SN,,0.00,WeatherDisplay:10.37,2013-01-26 03:49:00,
2013-01-25 22:54:00,4.8,3.2,30.05,ESE,112,0.0,0.0,93,0.00,-SN,,0.00,WeatherDisplay:10.37,2013-01-26 03:54:00,
2013-01-25 22:59:00,4.8,3.2,30.05,ESE,112,0.0,0.0,93,0.00,-SN,,0.00,WeatherDisplay:10.37,2013-01-26 03:59:00,
2013-01-25 23:04:00,5.0,3.2,30.05,ESE,112,0.0,0.0,92,0.00,-SN,,0.00,WeatherDisplay:10.37,2013-01-26 04:04:00,
2013-01-25 23:09:00,4.8,3.0,30.05,ESE,112,0.0,0.0,92,0.00,-SN,,0.00,WeatherDisplay:10.37,2013-01-26 04:09:00,
2013-01-25 23:14:00,4.6,2.8,30.05,ESE,112,0.0,0.0,92,0.00,-SN,,0.00,WeatherDisplay:10.37,2013-01-26 04:14:00,
2013-01-25 23:19:00,4.3,2.5,30.05,ESE,112,0.0,0.0,92,0.00,-SN,,0.00,WeatherDisplay:10.37,2013-01-26 04:19:00,
2013-01-25 23:24:00,4.1,2.3,30.05,ESE,112,1.5,1.7,92,0.00,-SN,,0.00,WeatherDisplay:10.37,2013-01-26 04:24:00,
2013-01-25 23:29:00,3.7,1.9,30.05,ESE,112,0.7,1.1,92,0.00,-SN,,0.00,WeatherDisplay:10.37,2013-01-26 04:29:00,
2013-01-25 23:34:00,3.7,1.9,30.05,ESE,112,1.5,1.7,92,0.00,-SN,,0.00,WeatherDisplay:10.37,2013-01-26 04:34:00,
2013-01-25 23:39:00,3.4,1.6,30.06,ESE,112,1.1,1.1,92,0.00,-SN,,0.00,WeatherDisplay:10.37,2013-01-26 04:39:00,
2013-01-25 23:44:00,3.2,1.2,30.06,ESE,112,0.0,0.0,91,0.00,-SN,,0.00,WeatherDisplay:10.37,2013-01-26 04:44:00,
2013-01-25 23:49:00,3.2,1.2,30.06,ESE,112,0.0,0.0,91,0.00,-SN,,0.00,WeatherDisplay:10.37,2013-01-26 04:49:00,
2013-01-25 23:54:00,3.2,1.2,30.06,ESE,112,0.0,0.0,91,0.00,-SN,,0.00,WeatherDisplay:10.37,2013-01-26 04:54:00,
2013-01-25 23:59:00,3.0,1.0,30.06,ESE,112,0.0,0.0,91,0.00,-SN,,0.00,WeatherDisplay:10.37,2013-01-26 04:59:00,